Terug naar catalogus

BDSAGR-1

ActiefWetenschapSSO
NORAD 44879·PAYLOAD·🇨🇳 China
Deze satellietnaam is nog niet bevestigd door officiële bronnen.

Gelanceerd Dec 20, 2019 vanaf Taiyuan Satellite Launch Center

Loading…

Volgende Passages (komende 24 uur)

TLE

VersSource: Space-Track

Epoch: Sep 14, 2026, 22:33 UTC

1 44879U 19093A   26257.94023484  .00001167  00000-0  10966-3 0  9990
2 44879  97.7777 341.1334 0012486 110.3652 249.8912 14.95801533365464

Volg BDSAGR-1 in realtime met AllMySat

Download on the App Store